Time,TemperatureF,DewpointF,PressureIn,WindDirection,WindDirectionDegrees,WindSpeedMPH,WindSpeedGustMPH,Humidity,HourlyPrecipIn,Conditions,Clouds,dailyrainin,SoftwareType,DateUTC
2013-01-12 00:04:00,1.3,-5.0,30.55,SSW,213,0.0,-999.0,74,-99.99,,,0.00,weatherlink.com 1.10,2013-01-12 07:04:00,
2013-01-12 00:19:00,1.1,-5.0,30.57,SSW,213,0.0,-999.0,75,-99.99,,,0.00,weatherlink.com 1.10,2013-01-12 07:19:00,
2013-01-12 00:34:00,1.1,-5.0,30.57,SSW,213,0.0,-999.0,75,-99.99,,,0.00,weatherlink.com 1.10,2013-01-12 07:34:00,
2013-01-12 00:49:00,0.5,-6.0,30.56,SSW,213,0.0,-999.0,74,-99.99,,,0.00,weatherlink.com 1.10,2013-01-12 07:49:00,
2013-01-12 01:04:00,0.5,-5.0,30.56,SSW,213,0.0,-999.0,76,-99.99,,,0.00,weatherlink.com 1.10,2013-01-12 08:04:00,
2013-01-12 01:19:00,0.7,-6.0,30.55,SSW,213,0.0,-999.0,74,-99.99,,,0.00,weatherlink.com 1.10,2013-01-12 08:19:00,
2013-01-12 01:34:00,0.0,-6.0,30.55,SSW,213,0.0,-999.0,75,-99.99,,,0.00,weatherlink.com 1.10,2013-01-12 08:34:00,
2013-01-12 01:49:00,-0.2,-6.0,30.55,SSW,213,0.0,-999.0,76,-99.99,,,0.00,weatherlink.com 1.10,2013-01-12 08:49:00,
2013-01-12 02:04:00,-0.4,-6.0,30.57,SSW,213,0.0,-999.0,76,-99.99,,,0.00,weatherlink.com 1.10,2013-01-12 09:04:00,
2013-01-12 02:19:00,0.1,-6.0,30.56,SSW,213,0.0,-999.0,76,-99.99,,,0.00,weatherlink.com 1.10,2013-01-12 09:19:00,
2013-01-12 02:34:00,-0.4,-6.0,30.56,SSW,213,0.0,-999.0,76,-99.99,,,0.00,weatherlink.com 1.10,2013-01-12 09:34:00,
2013-01-12 02:49:00,-0.8,-7.0,30.55,SSW,213,0.0,-999.0,76,-99.99,,,0.00,weatherlink.com 1.10,2013-01-12 09:49:00,
2013-01-12 03:04:00,-1.0,-7.0,30.57,SSW,213,0.0,-999.0,76,-99.99,,,0.00,weatherlink.com 1.10,2013-01-12 10:04:00,
2013-01-12 03:19:00,-1.4,-7.0,30.56,SSW,213,0.0,-999.0,76,-99.99,,,0.00,weatherlink.com 1.10,2013-01-12 10:19:00,
2013-01-12 03:34:00,-1.6,-7.0,30.58,SSW,213,0.0,-999.0,77,-99.99,,,0.00,weatherlink.com 1.10,2013-01-12 10:34:00,
2013-01-12 03:49:00,-1.2,-7.0,30.56,SSW,213,0.0,-999.0,76,-99.99,,,0.00,weatherlink.com 1.10,2013-01-12 10:49:00,
2013-01-12 04:04:00,-1.4,-8.0,30.57,SSW,213,0.0,-999.0,74,-99.99,,,0.00,weatherlink.com 1.10,2013-01-12 11:04:00,
2013-01-12 04:19:00,-1.8,-8.0,30.57,SSW,213,0.0,-999.0,75,-99.99,,,0.00,weatherlink.com 1.10,2013-01-12 11:19:00,
2013-01-12 04:34:00,-1.8,-8.0,30.57,SSW,213,0.0,-999.0,75,-99.99,,,0.00,weatherlink.com 1.10,2013-01-12 11:34:00,
2013-01-12 04:49:00,-2.0,-8.0,30.57,SSW,213,0.0,-999.0,76,-99.99,,,0.00,weatherlink.com 1.10,2013-01-12 11:49:00,
2013-01-12 05:04:00,-1.8,-8.0,30.59,SSW,213,0.0,-999.0,74,-99.99,,,0.00,weatherlink.com 1.10,2013-01-12 12:04:00,
2013-01-12 05:19:00,-2.6,-9.0,30.61,SSW,213,0.0,-999.0,75,-99.99,,,0.00,weatherlink.com 1.10,2013-01-12 12:19:00,
2013-01-12 05:34:00,-2.8,-9.0,30.62,SSW,213,0.0,-999.0,75,-99.99,,,0.00,weatherlink.com 1.10,2013-01-12 12:34:00,
2013-01-12 05:49:00,-2.8,-9.0,30.62,SSW,213,0.0,-999.0,75,-99.99,,,0.00,weatherlink.com 1.10,2013-01-12 12:49:00,
2013-01-12 06:04:00,-2.8,-9.0,30.65,SSW,213,0.0,-999.0,76,-99.99,,,0.00,weatherlink.com 1.10,2013-01-12 13:04:00,
2013-01-12 06:19:00,-3.3,-9.0,30.65,SSW,213,0.0,-999.0,76,-99.99,,,0.00,weatherlink.com 1.10,2013-01-12 13:19:00,
2013-01-12 06:34:00,-3.7,-10.0,30.68,SSW,213,0.0,-999.0,76,-99.99,,,0.00,weatherlink.com 1.10,2013-01-12 13:34:00,
2013-01-12 06:49:00,-2.4,-9.0,30.66,SSW,213,0.0,-999.0,75,-99.99,,,0.00,weatherlink.com 1.10,2013-01-12 13:49:00,
2013-01-12 07:04:00,-3.1,-9.0,30.70,SSW,213,0.0,-999.0,74,-99.99,,,0.00,weatherlink.com 1.10,2013-01-12 14:04:00,
2013-01-12 07:19:00,-3.3,-9.0,30.70,SSW,213,0.0,-999.0,75,-99.99,,,0.00,weatherlink.com 1.10,2013-01-12 14:19:00,
2013-01-12 07:34:00,-3.5,-10.0,30.73,SSW,213,0.0,-999.0,75,-99.99,,,0.00,weatherlink.com 1.10,2013-01-12 14:34:00,
2013-01-12 07:49:00,-2.8,-9.0,30.71,SSW,213,0.0,-999.0,75,-99.99,,,0.00,weatherlink.com 1.10,2013-01-12 14:49:00,
2013-01-12 08:04:00,-2.2,-8.0,30.72,SSW,213,0.0,-999.0,78,-99.99,,,0.00,weatherlink.com 1.10,2013-01-12 15:04:00,
2013-01-12 08:19:00,-0.2,-8.0,30.70,SSW,213,0.0,-999.0,70,-99.99,,,0.00,weatherlink.com 1.10,2013-01-12 15:19:00,
2013-01-12 08:34:00,1.3,-8.0,30.71,SSW,213,0.0,-999.0,65,-99.99,,,0.00,weatherlink.com 1.10,2013-01-12 15:34:00,
2013-01-12 08:49:00,5.0,-4.0,30.68,SSW,211,1.0,-999.0,67,-99.99,,,0.00,weatherlink.com 1.10,2013-01-12 15:49:00,
2013-01-12 09:04:00,6.5,-7.0,30.68,SSE,148,0.0,-999.0,53,-99.99,,,0.00,weatherlink.com 1.10,2013-01-12 16:04:00,
2013-01-12 09:19:00,9.5,-5.0,30.66,SSE,148,0.0,-999.0,52,-99.99,,,0.00,weatherlink.com 1.10,2013-01-12 16:19:00,
2013-01-12 09:34:00,12.1,-5.0,30.62,SE,132,2.0,-999.0,47,-99.99,,,0.00,weatherlink.com 1.10,2013-01-12 16:34:00,
2013-01-12 09:49:00,10.9,-7.0,30.64,East,93,2.0,-999.0,44,-99.99,,,0.00,weatherlink.com 1.10,2013-01-12 16:49:00,
2013-01-12 10:04:00,11.1,-8.0,30.64,SE,132,2.0,-999.0,43,-99.99,,,0.00,weatherlink.com 1.10,2013-01-12 17:04:00,
2013-01-12 10:19:00,13.8,-3.0,30.59,SE,132,0.0,-999.0,48,-99.99,,,0.00,weatherlink.com 1.10,2013-01-12 17:19:00,
2013-01-12 10:34:00,16.9,2.0,30.56,SE,134,0.0,-999.0,52,-99.99,,,0.00,weatherlink.com 1.10,2013-01-12 17:34:00,
2013-01-12 10:49:00,17.7,-2.0,30.54,SE,131,0.0,-999.0,41,-99.99,,,0.00,weatherlink.com 1.10,2013-01-12 17:49:00,
2013-01-12 11:04:00,18.8,-5.0,30.53,SE,138,1.0,-999.0,35,-99.99,,,0.00,weatherlink.com 1.10,2013-01-12 18:04:00,
2013-01-12 11:19:00,19.7,-2.0,30.50,SE,138,1.0,-999.0,38,-99.99,,,0.00,weatherlink.com 1.10,2013-01-12 18:19:00,
2013-01-12 11:34:00,19.2,-4.0,30.51,ESE,115,0.0,-999.0,35,-99.99,,,0.01,weatherlink.com 1.10,2013-01-12 18:34:00,
2013-01-12 11:49:00,17.8,-4.0,30.50,East,97,1.0,-999.0,38,-99.99,,,0.02,weatherlink.com 1.10,2013-01-12 18:49:00,
2013-01-12 12:04:00,13.8,-7.0,30.55,South,184,0.0,-999.0,40,-99.99,,,0.02,weatherlink.com 1.10,2013-01-12 19:04:00,
2013-01-12 12:19:00,13.3,0.0,30.55,SSE,158,1.0,-999.0,55,-99.99,,,0.02,weatherlink.com 1.10,2013-01-12 19:19:00,
2013-01-12 12:34:00,12.1,2.0,30.57,SSE,158,0.0,-999.0,63,-99.99,,,0.02,weatherlink.com 1.10,2013-01-12 19:34:00,
2013-01-12 12:49:00,12.8,1.0,30.54,SSE,152,2.0,-999.0,60,-99.99,,,0.02,weatherlink.com 1.10,2013-01-12 19:49:00,
2013-01-12 13:04:00,14.0,3.0,30.53,East,90,4.0,-999.0,63,-99.99,,,0.02,weatherlink.com 1.10,2013-01-12 20:04:00,
2013-01-12 13:19:00,12.9,5.0,30.55,South,191,0.0,-999.0,71,-99.99,,,0.02,weatherlink.com 1.10,2013-01-12 20:19:00,
2013-01-12 13:34:00,11.4,6.0,30.57,South,187,0.0,-999.0,77,-99.99,,,0.02,weatherlink.com 1.10,2013-01-12 20:34:00,
2013-01-12 13:49:00,12.8,7.0,30.55,ESE,111,1.0,-999.0,78,-99.99,,,0.02,weatherlink.com 1.10,2013-01-12 20:49:00,
2013-01-12 14:04:00,13.1,7.0,30.55,ESE,104,0.0,-999.0,76,-99.99,,,0.02,weatherlink.com 1.10,2013-01-12 21:04:00,
2013-01-12 14:19:00,11.2,5.0,30.57,ESE,107,0.0,-999.0,76,-99.99,,,0.02,weatherlink.com 1.10,2013-01-12 21:19:00,
2013-01-12 14:34:00,10.9,6.0,30.58,ESE,107,0.0,-999.0,79,-99.99,,,0.02,weatherlink.com 1.10,2013-01-12 21:34:00,
2013-01-12 14:49:00,10.2,5.0,30.60,ESE,107,0.0,-999.0,80,-99.99,,,0.02,weatherlink.com 1.10,2013-01-12 21:49:00,
2013-01-12 15:04:00,11.2,6.0,30.58,ESE,107,0.0,-999.0,79,-99.99,,,0.02,weatherlink.com 1.10,2013-01-12 22:04:00,
2013-01-12 15:19:00,11.4,5.0,30.58,ESE,107,0.0,-999.0,75,-99.99,,,0.02,weatherlink.com 1.10,2013-01-12 22:19:00,
2013-01-12 15:34:00,12.8,6.0,30.56,ESE,107,0.0,-999.0,74,-99.99,,,0.02,weatherlink.com 1.10,2013-01-12 22:34:00,
2013-01-12 15:49:00,12.6,6.0,30.56,ESE,107,0.0,-999.0,74,-99.99,,,0.02,weatherlink.com 1.10,2013-01-12 22:49:00,
2013-01-12 16:04:00,12.3,6.0,30.58,ESE,107,0.0,-999.0,75,-99.99,,,0.02,weatherlink.com 1.10,2013-01-12 23:04:00,
2013-01-12 16:19:00,11.9,5.0,30.58,ESE,108,0.0,-999.0,75,-99.99,,,0.02,weatherlink.com 1.10,2013-01-12 23:19:00,
2013-01-12 16:34:00,11.4,5.0,30.60,ESE,108,0.0,-999.0,74,-99.99,,,0.02,weatherlink.com 1.10,2013-01-12 23:34:00,
2013-01-12 16:49:00,12.1,5.0,30.58,ESE,115,0.0,-999.0,72,-99.99,,,0.02,weatherlink.com 1.10,2013-01-12 23:49:00,
2013-01-12 17:04:00,13.5,6.0,30.58,SSE,158,1.0,-999.0,72,-99.99,,,0.02,weatherlink.com 1.10,2013-01-13 00:04:00,
2013-01-12 17:19:00,12.3,4.0,30.60,SSE,158,0.0,-999.0,70,-99.99,,,0.02,weatherlink.com 1.10,2013-01-13 00:19:00,
2013-01-12 17:34:00,10.7,4.0,30.61,SSE,158,0.0,-999.0,74,-99.99,,,0.02,weatherlink.com 1.10,2013-01-13 00:34:00,
2013-01-12 17:49:00,10.2,3.0,30.64,SSE,158,0.0,-999.0,71,-99.99,,,0.02,weatherlink.com 1.10,2013-01-13 00:49:00,
2013-01-12 18:04:00,9.7,2.0,30.62,SSE,158,0.0,-999.0,72,-99.99,,,0.02,weatherlink.com 1.10,2013-01-13 01:04:00,
2013-01-12 18:19:00,9.7,3.0,30.63,SSE,158,0.0,-999.0,74,-99.99,,,0.02,weatherlink.com 1.10,2013-01-13 01:19:00,
2013-01-12 18:34:00,8.3,2.0,30.65,SSE,158,0.0,-999.0,75,-99.99,,,0.02,weatherlink.com 1.10,2013-01-13 01:34:00,
2013-01-12 18:49:00,7.0,1.0,30.67,SSE,158,0.0,-999.0,75,-99.99,,,0.02,weatherlink.com 1.10,2013-01-13 01:49:00,
2013-01-12 19:04:00,5.8,0.0,30.69,SSE,158,0.0,-999.0,76,-99.99,,,0.02,weatherlink.com 1.10,2013-01-13 02:04:00,
2013-01-12 19:19:00,4.8,-1.0,30.70,SSE,158,0.0,-999.0,77,-99.99,,,0.02,weatherlink.com 1.10,2013-01-13 02:19:00,
2013-01-12 19:34:00,4.5,-2.0,30.72,SSE,158,0.0,-999.0,76,-99.99,,,0.02,weatherlink.com 1.10,2013-01-13 02:34:00,
2013-01-12 19:49:00,4.3,-2.0,30.72,SSE,158,0.0,-999.0,74,-99.99,,,0.02,weatherlink.com 1.10,2013-01-13 02:49:00,
2013-01-12 20:04:00,3.7,-3.0,30.62,SSE,158,0.0,-999.0,74,-99.99,,,0.02,weatherlink.com 1.10,2013-01-13 03:04:00,
2013-01-12 20:19:00,3.4,-3.0,30.64,SSE,158,0.0,-999.0,73,-99.99,,,0.02,weatherlink.com 1.10,2013-01-13 03:19:00,
2013-01-12 20:34:00,2.6,-4.0,30.64,SSE,158,0.0,-999.0,74,-99.99,,,0.02,weatherlink.com 1.10,2013-01-13 03:34:00,
2013-01-12 20:49:00,2.0,-5.0,30.65,SSE,158,0.0,-999.0,74,-99.99,,,0.02,weatherlink.com 1.10,2013-01-13 03:49:00,
2013-01-12 21:04:00,1.8,-4.0,30.61,SSE,158,0.0,-999.0,76,-99.99,,,0.02,weatherlink.com 1.10,2013-01-13 04:04:00,
2013-01-12 21:19:00,1.5,-5.0,30.61,SSE,158,0.0,-999.0,74,-99.99,,,0.02,weatherlink.com 1.10,2013-01-13 04:19:00,
2013-01-12 21:34:00,0.7,-6.0,30.62,SSE,158,0.0,-999.0,75,-99.99,,,0.02,weatherlink.com 1.10,2013-01-13 04:34:00,
2013-01-12 21:49:00,0.5,-6.0,30.62,SSE,158,0.0,-999.0,74,-99.99,,,0.02,weatherlink.com 1.10,2013-01-13 04:49:00,
2013-01-12 22:04:00,0.0,-6.0,30.57,SSE,158,0.0,-999.0,76,-99.99,,,0.02,weatherlink.com 1.10,2013-01-13 05:04:00,
2013-01-12 22:19:00,0.1,-6.0,30.57,SSE,158,0.0,-999.0,76,-99.99,,,0.02,weatherlink.com 1.10,2013-01-13 05:19:00,
2013-01-12 22:34:00,-0.4,-7.0,30.58,SSE,158,0.0,-999.0,75,-99.99,,,0.02,weatherlink.com 1.10,2013-01-13 05:34:00,
2013-01-12 22:49:00,-1.0,-7.0,30.60,SSE,158,0.0,-999.0,76,-99.99,,,0.02,weatherlink.com 1.10,2013-01-13 05:49:00,
2013-01-12 23:04:00,-1.0,-7.0,30.60,SSE,158,0.0,-999.0,76,-99.99,,,0.02,weatherlink.com 1.10,2013-01-13 06:04:00,
2013-01-12 23:19:00,-0.6,-6.0,30.61,SSE,158,0.0,-999.0,76,-99.99,,,0.02,weatherlink.com 1.10,2013-01-13 06:19:00,
2013-01-12 23:34:00,-0.8,-7.0,30.61,SSE,158,0.0,-999.0,76,-99.99,,,0.02,weatherlink.com 1.10,2013-01-13 06:34:00,
2013-01-12 23:49:00,-1.4,-7.0,30.61,SSE,158,0.0,-999.0,76,-99.99,,,0.02,weatherlink.com 1.10,2013-01-13 06:49:00,